#timestamp,LO_Frequency,Hit,StdDev 
1668322815.1,286047000.0,N
1668322835.9,286046998.5,N
1668322855.7,286046999.6,N
1668322875.6,286046998.9,N
1668322895.4,286047001.2,N
1668322915.2,286046998.9,N
1668322935.1,286046998.2,N
1668322936.0,286046998.2,N
1668322955.8,286046999.6,N
1668322975.6,286046998.4,N
1668322995.5,286046998.1,N
1668323015.3,286046998.7,N
1668323035.2,286047000.3,N
1668323055.9,286047000.3,N
1668323075.7,286047002.4,N
1668323095.6,286047001.1,N
1668323115.4,286046998.7,N
1668323135.2,286046998.7,N
1668323155.1,286046998.5,N
1668323156.0,286046998.5,N
1668323175.8,286046998.1,N
1668323195.7,286047000.8,N
1668323215.5,286046998.3,N
1668323235.3,286046998.6,N
1668323255.2,286047000.7,N
1668323275.0,286046999.2,N
1668323275.9,286046999.2,N
1668323295.7,286046998.2,N
1668323315.6,286047001.1,N
1668323335.4,286047002.6,N
1668323355.3,286047000.5,N
1668323375.1,286047000.4,N
1668323376.0,286047000.4,N
1668323395.8,286047001.0,N
1668323415.7,286047000.3,N
1668323435.5,286047000.1,N
1668323455.3,286047000.7,N
1668323475.2,286047001.1,N
1668323495.0,286046998.3,N
1668323495.9,286046998.3,N
1668323515.8,286046997.3,N
1668323535.6,286046995.4,Y
1668323555.4,286046999.5,P
1668323575.3,286046999.1,P
1668323595.1,286046998.3,P
1668323615.9,286046999.5,N
1668323635.7,286046997.1,Y
1668323655.5,286046998.0,P
1668323675.4,286046999.1,N
1668323695.2,286047000.8,N
1668323715.0,286047000.4,N
1668323715.9,286047000.4,N
1668323735.8,286047002.3,N
1668323755.6,286047004.4,Y
1668323775.5,286047002.4,P
1668323795.3,286047002.2,N
1668323815.1,286047000.2,N
1668323835.9,286047002.1,N
1668323855.7,286047002.4,N
1668323875.5,286046999.8,N
1668323895.4,286047000.1,N
1668323915.2,286046999.8,N
1668323935.1,286047002.5,N
1668323936.0,286047002.5,N
1668323955.8,286047002.4,N
1668323975.6,286046998.5,N
1668323995.5,286046998.5,N
1668324015.3,286047000.6,N
1668324035.1,286046998.7,N
1668324055.9,286046999.4,N
1668324075.7,286047001.1,N
1668324095.6,286047000.0,N
1668324115.4,286047002.0,N
1668324135.2,286047001.3,N
1668324155.1,286047001.3,N
1668324156.0,286047001.3,N
1668324175.8,286046998.2,N
1668324195.7,286046998.1,N
1668324215.5,286046998.1,N
1668324235.3,286047001.0,N
1668324255.2,286047001.1,N
1668324275.0,286046996.7,N
1668324275.9,286046996.7,N
1668324295.7,286046999.4,N
1668324315.6,286047001.1,N
1668324365.5,286047000.6,E
1668324375.4,286046999.0,N
1668324395.2,286046999.4,P
1668324415.0,286046999.2,P
1668324416.0,286046999.2,Y
1668324435.8,286046996.5,P
1668324455.6,286046998.2,N
1668324475.5,286046998.5,N
1668324495.3,286047000.8,N
1668324515.1,286046999.0,N
1668324535.9,286046996.9,N
1668324555.7,286046999.3,N
1668324575.6,286047000.9,N
1668324595.4,286047000.1,N
1668324615.2,286047002.2,N
1668324635.1,286047002.0,N
1668324636.0,286047002.0,N
1668324655.8,286047005.6,Y
1668324675.6,286047001.4,P
1668324695.5,286047002.4,N
1668324715.3,286047000.1,N
1668324735.2,286047000.6,N
1668324755.9,286047000.7,N
1668324775.7,286047002.5,N
1668324795.6,286047001.6,N
1668324815.4,286047001.3,N
1668324835.2,286047001.3,N
1668324855.1,286047004.4,Y
1668324856.0,286047004.4,P
1668324875.8,286046998.3,N
1668324895.7,286047001.1,N
1668324915.5,286047000.6,N
1668324935.3,286047000.5,N
1668324955.2,286046999.8,N
1668324975.0,286047002.8,N
1668324975.9,286047002.8,N
1668324995.8,286046999.9,N
1668325015.6,286047002.4,N
1668325035.4,286047001.9,N
1668325055.3,286047004.1,N
1668325075.1,286047002.0,N
1668325095.8,286047001.4,N
1668325115.7,286047004.1,N
1668325135.5,286047000.5,N
1668325155.4,286046999.3,N
1668325175.2,286046998.1,N
1668325195.0,286047000.3,N
1668325195.9,286047000.3,N
1668325215.8,286046999.7,N
1668325235.6,286046998.6,N
1668325255.4,286046999.2,N
1668325275.3,286046998.8,N
1668325295.1,286047000.4,N
1668325315.9,286047002.7,N
1668325335.7,286047002.8,N
1668325355.5,286047004.0,N
1668325375.4,286047005.9,Y
1668325395.2,286047003.1,P
1668325415.1,286047004.2,P
1668325416.0,286047004.2,P
1668325435.8,286047004.4,Y
1668325455.7,286046996.7,P
1668325475.5,286046997.8,N
1668325495.3,286046996.8,N
1668325515.2,286046996.7,N
1668325535.9,286046996.7,N
1668325555.7,286046995.4,N
1668325575.6,286046997.8,N
1668325595.4,286046996.7,N
1668325615.2,286046999.6,N
1668325665.1,286046996.7,E
1668325675.0,286046998.8,N
1668325675.9,286046998.8,P
1668325695.8,286046999.8,P
1668325715.6,286047002.7,Y
1668325735.5,286047002.1,P
1668325755.3,286047000.9,N
1668325775.1,286047000.0,N
1668325795.9,286046999.9,N
1668325815.7,286047002.8,N
1668325835.6,286047002.7,N
1668325855.4,286047001.6,N
1668325875.2,286047001.7,N
1668325895.1,286047001.5,N
1668325896.0,286047001.5,N
1668325915.8,286046999.9,N
1668325935.6,286046998.7,N
1668325955.5,286046998.8,N
1668325975.3,286046998.6,N
1668325995.2,286046998.1,N
1668326015.9,286047002.3,N
1668326035.7,286047000.1,N
1668326055.6,286047001.9,N
1668326075.4,286047002.8,N
1668326095.2,286047000.7,N
1668326115.1,286047002.2,N
1668326116.0,286047002.2,N
1668326135.8,286047001.6,N
1668326155.7,286047001.4,N
1668326175.5,286047003.7,N
1668326195.3,286047005.9,Y
1668326215.2,286046999.8,P
1668326235.0,286047000.9,N
1668326235.9,286047000.9,N
1668326255.8,286046997.3,Y
1668326275.6,286046995.1,P
1668326295.4,286046995.3,N
1668326315.3,286046997.3,N
1668326335.1,286046997.0,N
1668326355.9,286046997.9,N
1668326375.7,286046996.7,N
1668326395.5,286046996.6,N
